Location: Étouvelles
(49.5207°N, 3.5808°E)
Time: 12:05:56
(UTC+00:00)

Gblst 52 Del rocket - Pass Details

Date: 03 February 2023
Orbit: 805 x 1364 km, 51.5° (Epoch: 23 March)

Event Time Altitude Azimuth Distance (km) Brightness Sun altitude
Rises 18:36:32 0° 252° (WSW) 3,413 8.8 -18.4°
Reaches altitude 10° 18:39:04 10° 252° (WSW) 2,436 7.8 -18.8°
Maximum altitude 18:44:40 88° 340° (NNW) 813 4.0 -19.7°
Enters shadow 18:46:51 38° 72° (ENE) 1,205 4.5 -20.1°
